[[{"header":{"parameterUnit":"m.s-1","parameterCategory":2,"la1":30.2991,"la2":30.254,"lo1":-89.0895,"lo2":-89.0444,"dy":0.0017,"dx":0.0017,"nx":28,"ny":28,"refTime":"2023-10-17T03:00:00:Z","depth":"0","parameterNumber":2,"parameterNumberName":"U-component_of_CURRENTS"},"data":[0,0,0,0,0,0,0,0,0,0,0,0,0,0,0,0,0,0,0,0,0,0,0,0,0,0,0,0,0,0,0,0,0,0,0,0,0,0,0,0,0,0,0,0,0,0,0,0,0,0,0,0,0,0,0,0,0,0,0.309,0.309,0,0.3077,0.3076,0.3076,0.3001,0.3,0.2998,0.2997,0.2956,0.2956,0.2956,0,0,0,0,0,0,0,0,0,0,0,0,0,0.311,0.311,0.309,0.309,0.3091,0.3077,0.3076,0.3076,0.3001,0.3,0.2998,0.2996,0.2956,0.2956,0.2956,0,0,0,0,0,0,0,0,0,0,0,0,0,0.3097,0.3109,0.309,0.3054,0.3051,0.3077,0.3076,0.3076,0.3002,0.2999,0.2997,0.2995,0.2955,0.2956,0.2956,0.3005,0,0,0.2958,0.2958,0,0,0,0,0,0,0,0,0.3097,0.3096,0.3059,0.3057,0.3053,0.3041,0.3068,0.3052,0.3002,0.3017,0.2997,0.2994,0.2985,0.2983,0.2982,0.3003,0.3001,0.2958,0.2958,0.2958,0.2958,0,0,0,0,0,0,0,0.3098,0.3096,0.3082,0.306,0.3056,0.3059,0.3053,0.3065,0.3011,0.3016,0.3011,0.3015,0.2983,0.2981,0.298,0.3,0.2958,0.2958,0.2959,0.2959,0.3138,0.3142,0,0,0,0,0,0,0.3106,0.3097,0.3082,0.3082,0.3074,0.306,0.3054,0.3045,0.3012,0.3005,0.3017,0.3012,0.2982,0.298,0.2978,0.3129,0.2958,0.2959,0.2959,0.3134,0.3139,0.3144,0,0,0,0,0,0,0.3106,0.3104,0.3083,0.3092,0.309,0.3062,0.3052,0.3046,0.3054,0.3013,0.3005,0.3034,0.298,0.2978,0.3026,0.3123,0.2959,0.2959,0.3128,0.3135,0.3141,0.3368,0,0,0,0,0,0,0.3106,0.3104,0.3114,0.3092,0.309,0.3141,0.3055,0.3047,0.3061,0.3054,0.3026,0.3018,0.2978,0.3026,0.3027,0.312,0.296,0.3123,0.3131,0.3139,0.3355,0.3382,0.3405,0,0,0,0,0,0.3107,0.3141,0.3114,0.3114,0.3099,0.3145,0.3146,0.3115,0.3065,0.3106,0.308,0.302,0.308,0.3031,0.303,0.3126,0.3119,0.3129,0.3139,0.3344,0.3377,0.3404,0,0,0,0,0,0,0.3162,0.3136,0.3106,0.313,0.3152,0.3134,0.317,0.3138,0.3148,0.3138,0.3075,0.307,0.3153,0.311,0.3057,0.3203,0.3091,0.3102,0.3248,0.3278,0.3303,0.3287,0.296,0,0,0,0,0,0.3178,0.3189,0.3178,0.3205,0.322,0.3196,0.321,0.3194,0.3193,0.3193,0.3174,0.3165,0.3197,0.321,0.3224,0.3302,0.3289,0.3364,0.3389,0.3411,0.34,0.3489,0.3521,0.3177,0.3177,0.3177,0,0,0.3204,0.3196,0.3199,0.3218,0.3224,0.3273,0.3199,0.3246,0.3287,0.3192,0.3253,0.3255,0.3237,0.3331,0.3364,0.3305,0.3513,0.3423,0.3442,0.3418,0.3503,0.3536,0.3565,0.3184,0.3183,0.3181,0,0,0.3279,0.3262,0.33,0.333,0.336,0.3356,0.3377,0.3385,0.3392,0.3456,0.341,0.3471,0.3493,0.352,0.3529,0.37,0.3644,0.3709,0.3822,0.3911,0.394,0.3964,0.4037,0.4066,0.3719,0.3719,0.372,0,0.331,0.3344,0.333,0.3388,0.3417,0.3399,0.3461,0.3488,0.3512,0.3536,0.3505,0.3587,0.3588,0.3698,0.3763,0.3759,0.3783,0.3711,0.3944,0.3968,0.3989,0.4056,0.4086,0.3731,0.373,0.3729,0.3728,0,0.3413,0.3446,0.3488,0.3534,0.3577,0.364,0.3665,0.3717,0.3715,0.3724,0.3831,0.385,0.3883,0.393,0.3897,0.4062,0.4024,0.3971,0.3867,0.4038,0.4098,0.4125,0.3749,0.3744,0.3741,0.3738,0,0,0.3471,0.3534,0.3551,0.3582,0.3653,0.3693,0.3792,0.3863,0.3903,0.3972,0.4037,0.4148,0.4134,0.4144,0.4142,0.423,0.4437,0.4173,0.4172,0.4242,0.4635,0.4537,0.4555,0.4428,0.4433,0.4437,0.4633,0,0.3556,0.3653,0.3672,0.3781,0.3839,0.3861,0.394,0.4005,0.4044,0.4112,0.4173,0.4233,0.4223,0.4247,0.4352,0.4391,0.4509,0.4388,0.4458,0.446,0.435,0.4583,0.4242,0.438,0.4658,0.4662,0.4665,0,0.3673,0.3707,0.3805,0.3874,0.39,0.3956,0.4049,0.4116,0.4213,0.424,0.4328,0.434,0.4488,0.4437,0.4644,0.4564,0.4629,0.4668,0.4675,0.4507,0.441,0.4245,0.4416,0.4226,0.4704,0.4701,0.4698,0,0.373,0.3819,0.388,0.3911,0.3984,0.4026,0.4066,0.4156,0.4202,0.431,0.434,0.4495,0.454,0.4682,0.4752,0.4721,0.4946,0.4906,0.4894,0.4886,0.4565,0.4521,0.4543,0.5083,0.5082,0.5082,0.5081,0,0.3827,0.3882,0.3897,0.3935,0.4001,0.4045,0.4121,0.418,0.4255,0.432,0.439,0.4464,0.4601,0.4717,0.4814,0.4929,0.5009,0.4959,0.4951,0.4639,0.4601,0.4388,0.4351,0.5089,0.5087,0.5086,0.5085,0,0.3891,0.3911,0.3978,0.402,0.4034,0.4077,0.4127,0.4177,0.4235,0.432,0.4354,0.4471,0.4618,0.4733,0.4934,0.4971,0.4943,0.512,0.4734,0.4678,0.4489,0.4478,0.4413,0.4304,0.5182,0.5181,0.5181,0,0.3919,0.3959,0.4012,0.4035,0.4045,0.4091,0.4126,0.4178,0.4218,0.433,0.4374,0.4503,0.4625,0.4848,0.4862,0.501,0.4888,0.4806,0.4701,0.4476,0.4461,0.4334,0.4238,0.4389,0.4382,0.4376,0.4371,0,0.3951,0.3972,0.4005,0.4064,0.4094,0.4118,0.4156,0.4177,0.4246,0.43,0.4412,0.452,0.4631,0.4586,0.4682,0.4738,0.4505,0.4693,0.4551,0.394,0.3709,0.3594,0.4268,0.4318,0.4324,0.4328,0.433,0.4333,0.3952,0.3978,0.403,0.4077,0.412,0.4136,0.4108,0.4151,0.4195,0.4196,0.4362,0.4374,0.429,0.4358,0.438,0.4056,0.4211,0.3906,0.395,0.3872,0.3637,0.4209,0.4188,0.4192,0.4196,0.42,0.4203,0,0.3938,0.3976,0.4032,0.4081,0.4104,0.4122,0.4117,0.4033,0.4031,0.4067,0.4116,0.3915,0.3789,0.3695,0.3416,0.3297,0.3163,0.3192,0.2888,0.2869,0.3423,0.3248,0.2906,0.2906,0.2906,0.2906,0.2907,0.2907,0.3935,0.3977,0.4008,0.404,0.4055,0.3976,0.3928,0.3819,0.3772,0.3558,0.3385,0.3349,0.3224,0.2976,0.2701,0.2642,0.2476,0.2307,0.2473,0.2771,0.2837,0.29,0.2722,0.2276,0.2275,0.1651,0.1647,0.1643]},{"header":{"parameterUnit":"m.s-1","parameterCategory":2,"la1":30.2991,"la2":30.254,"lo1":-89.0895,"lo2":-89.0444,"dy":0.0017,"dx":0.0017,"nx":28,"ny":28,"refTime":"2023-10-17T03:00:00:Z","depth":"0","parameterNumber":3,"parameterNumberName":"V-component_of_CURRENTS"},"data":[0,0,0,0,0,0,0,0,0,0,0,0,0,0,0,0,0,0,0,0,0,0,0,0,0,0,0,0,0,0,0,0,0,0,0,0,0,0,0,0,0,0,0,0,0,0,0,0,0,0,0,0,0,0,0,0,0,0,-0.0086,-0.0087,0,-0.0133,-0.0133,-0.0134,-0.0196,-0.0197,-0.0198,-0.0198,-0.0244,-0.0245,-0.0245,0,0,0,0,0,0,0,0,0,0,0,0,0,-0.0069,-0.0069,-0.0086,-0.0087,-0.0087,-0.0132,-0.0133,-0.0134,-0.0196,-0.0197,-0.0198,-0.0199,-0.0244,-0.0245,-0.0245,0,0,0,0,0,0,0,0,0,0,0,0,0,-0.0093,-0.0069,-0.0086,-0.0122,-0.0126,-0.0132,-0.0133,-0.0134,-0.0195,-0.0197,-0.0198,-0.0199,-0.0244,-0.0245,-0.0245,-0.0222,0,0,-0.0247,-0.0247,0,0,0,0,0,0,0,0,-0.0092,-0.0094,-0.0117,-0.012,-0.0124,-0.0159,-0.0144,-0.0163,-0.0195,-0.017,-0.0198,-0.02,-0.0214,-0.0217,-0.0225,-0.0224,-0.0226,-0.0247,-0.0247,-0.0248,-0.0248,0,0,0,0,0,0,0,-0.009,-0.0092,-0.0106,-0.0117,-0.0121,-0.0142,-0.0147,-0.0148,-0.0185,-0.0173,-0.0177,-0.0179,-0.0216,-0.0224,-0.0226,-0.0227,-0.0247,-0.0248,-0.0248,-0.0248,-0.0228,-0.0227,0,0,0,0,0,0,-0.0079,-0.009,-0.0105,-0.0107,-0.0109,-0.0141,-0.0147,-0.0147,-0.0185,-0.0192,-0.0178,-0.0182,-0.0222,-0.0225,-0.0228,-0.0224,-0.0248,-0.0248,-0.0249,-0.0228,-0.0227,-0.0226,0,0,0,0,0,0,-0.0078,-0.0079,-0.0103,-0.0099,-0.0103,-0.014,-0.014,-0.0147,-0.0157,-0.0189,-0.0197,-0.0181,-0.0223,-0.0227,-0.0226,-0.0225,-0.0248,-0.0249,-0.023,-0.0228,-0.0227,-0.0201,0,0,0,0,0,0,-0.0077,-0.0079,-0.0077,-0.0098,-0.0103,-0.0103,-0.0139,-0.0147,-0.0156,-0.0162,-0.0193,-0.0199,-0.0225,-0.0225,-0.0226,-0.0226,-0.0249,-0.0231,-0.0229,-0.0227,-0.0203,-0.0199,-0.0196,0,0,0,0,0,-0.0076,-0.0071,-0.0077,-0.0079,-0.0099,-0.0102,-0.0106,-0.0138,-0.0154,-0.0153,-0.0173,-0.0198,-0.0216,-0.0224,-0.0226,-0.0227,-0.0231,-0.0229,-0.0227,-0.0205,-0.02,-0.0196,0,0,0,0,0,0,-0.0066,-0.0077,-0.0084,-0.0083,-0.0088,-0.0112,-0.0117,-0.0129,-0.0143,-0.0151,-0.0182,-0.0188,-0.0189,-0.0201,-0.0209,-0.0214,-0.0229,-0.0227,-0.0211,-0.0207,-0.0203,-0.0209,-0.025,0,0,0,0,0,-0.0058,-0.0058,-0.0067,-0.0065,-0.0067,-0.0087,-0.0093,-0.0108,-0.0122,-0.0131,-0.015,-0.0168,-0.018,-0.0188,-0.0198,-0.0193,-0.019,-0.0195,-0.0191,-0.0188,-0.0192,-0.0183,-0.0179,-0.022,-0.022,-0.022,0,0,-0.0055,-0.0059,-0.006,-0.0063,-0.0073,-0.0078,-0.0095,-0.0098,-0.0105,-0.0131,-0.0144,-0.0152,-0.0173,-0.0177,-0.0179,-0.019,-0.0168,-0.0185,-0.0183,-0.0189,-0.018,-0.0176,-0.0173,-0.0218,-0.0219,-0.0219,0,0,-0.0052,-0.0048,-0.0051,-0.0051,-0.0057,-0.0066,-0.0062,-0.0075,-0.0086,-0.0085,-0.0111,-0.0114,-0.0128,-0.0148,-0.0159,-0.0134,-0.0146,-0.0137,-0.0129,-0.0119,-0.0116,-0.0113,-0.0081,-0.0075,-0.0139,-0.0139,-0.0139,0,-0.0055,-0.0051,-0.0051,-0.0054,-0.0054,-0.0058,-0.0059,-0.0067,-0.0078,-0.0076,-0.0086,-0.01,-0.0118,-0.0128,-0.0129,-0.0128,-0.0116,-0.0147,-0.0115,-0.0113,-0.011,-0.0078,-0.0072,-0.0138,-0.0138,-0.0138,-0.0138,0,-0.0063,-0.0052,-0.005,-0.0057,-0.0053,-0.0049,-0.0054,-0.0049,-0.0054,-0.0061,-0.0057,-0.0073,-0.0082,-0.0088,-0.0107,-0.0101,-0.0093,-0.0108,-0.0129,-0.0105,-0.0072,-0.0066,-0.0136,-0.0136,-0.0137,-0.0137,0,0,-0.0113,-0.0064,-0.0071,-0.0051,-0.005,-0.0044,-0.0045,-0.0041,-0.0029,-0.0041,-0.0025,-0.0055,-0.0053,-0.0064,-0.0079,-0.0081,-0.005,-0.0091,-0.0091,-0.0063,-0.0008,0.0055,0.0067,-0.0061,-0.0061,-0.006,0.0018,0,-0.0129,-0.0103,-0.0089,-0.0069,-0.0052,-0.0042,-0.0033,-0.0027,-0.0019,0.0,-0.0016,-0.0003,-0.0047,-0.0034,-0.0048,-0.0038,-0.0039,-0.0069,-0.0033,-0.0031,0.0018,0.0074,0.0074,0.0148,0.0023,0.0024,0.0024,0,-0.0171,-0.0133,-0.0102,-0.004,-0.0035,-0.0028,0.0003,0.0014,0.0035,0.0047,0.0048,0.0048,0.005,0.0014,0.002,0.0006,-0.0006,-0.0009,-0.0006,0.0043,0.0041,0.0099,0.0162,0.0007,0.0032,0.0031,0.0031,0,-0.0205,-0.0156,-0.0116,-0.0102,-0.0038,-0.0024,-0.0,0.0025,0.0055,0.0087,0.0128,0.0112,0.0149,0.0112,0.0109,0.0067,0.0133,0.0078,0.012,0.0125,0.0126,0.0131,0.0038,0.007,0.0069,0.0069,0.0069,0,-0.0231,-0.0203,-0.012,-0.0098,-0.0048,-0.0015,0.0027,0.0055,0.0106,0.0175,0.0158,0.0227,0.0175,0.0208,0.0155,0.0188,0.0174,0.014,0.0152,0.014,0.0145,0.0012,-0.007,0.0072,0.0071,0.0071,0.007,0,-0.0259,-0.0215,-0.0156,-0.0078,-0.0056,-0.0018,0.0054,0.0099,0.0149,0.0246,0.0269,0.0334,0.0406,0.0365,0.0358,0.0292,0.0231,0.0287,0.0296,0.0308,0.0184,0.0106,0.0084,0.0045,0.0339,0.0341,0.0342,0,-0.0253,-0.0224,-0.0139,-0.0098,-0.0057,0.0002,0.0051,0.0107,0.0175,0.0331,0.0399,0.0501,0.0627,0.0654,0.0563,0.0521,0.0348,0.044,0.0343,0.0197,0.0117,0.0058,0.0021,0.0361,0.0363,0.0365,0.0366,0,-0.0221,-0.0201,-0.0141,-0.0064,-0.0008,0.0061,0.0145,0.0209,0.032,0.0452,0.0662,0.0787,0.0843,0.0852,0.0775,0.0691,0.0344,0.0469,0.03,0.0123,0.007,0.0033,0.0299,0.0379,0.0377,0.0376,0.0376,0.0375,-0.0183,-0.0145,-0.0076,-0.0002,0.0058,0.0153,0.0239,0.0372,0.0542,0.0818,0.0886,0.1183,0.106,0.0999,0.0835,0.0491,0.0493,0.0345,0.0266,0.0223,0.0165,0.0485,0.0588,0.0588,0.0588,0.0588,0.0588,0,-0.0099,-0.0068,-0.0009,0.0089,0.0169,0.0185,0.0336,0.0477,0.0739,0.1043,0.1289,0.1468,0.1296,0.1026,0.0572,0.031,0.0178,0.0139,-0.0007,-0.0033,0.023,0.0206,0.0253,0.0254,0.0254,0.0254,0.0254,0.0254,-0.0047,0.0025,0.0044,0.0183,0.0249,0.0398,0.0502,0.0739,0.0996,0.1437,0.1715,0.1881,0.1649,0.0752,0.0133,-0.0013,-0.0235,-0.0238,-0.0328,-0.0243,-0.0233,-0.0224,-0.027,-0.0323,-0.0324,-0.0583,-0.0586,-0.0588]}],[{"header":{"parameterUnit":"m.s-1","parameterCategory":2,"la1":30.2991,"la2":30.254,"lo1":-89.0895,"lo2":-89.0444,"dy":0.0017,"dx":0.0017,"nx":28,"ny":28,"refTime":"2023-10-17T03:00:00:Z","depth":"2","parameterNumber":2,"parameterNumberName":"U-component_of_CURRENTS"},"data":[0,0,0,0,0,0,0,0,0,0,0,0,0,0,0,0,0,0,0,0,0,0,0,0,0,0,0,0,0,0,0,0,0,0,0,0,0,0,0,0,0,0,0,0,0,0,0,0,0,0,0,0,0,0,0,0,0,0,0.2094,0.2094,0,0.21,0.21,0.21,0.2119,0.2119,0.212,0.212,0.2158,0.2159,0.216,0,0,0,0,0,0,0,0,0,0,0,0,0,0.2092,0.2092,0.2094,0.2094,0.2094,0.21,0.21,0.21,0.2119,0.2119,0.212,0.212,0.2158,0.2159,0.216,0,0,0,0,0,0,0,0,0,0,0,0,0,0.2095,0.2092,0.2094,0.2104,0.2105,0.21,0.21,0.21,0.2119,0.212,0.212,0.2121,0.2158,0.2159,0.216,0.2155,0,0,0.2163,0.2163,0,0,0,0,0,0,0,0,0.2095,0.2096,0.2102,0.2103,0.2104,0.2109,0.2113,0.212,0.2119,0.2114,0.212,0.2121,0.2144,0.2146,0.2146,0.2156,0.2158,0.2163,0.2163,0.2164,0.2164,0,0,0,0,0,0,0,0.2095,0.2095,0.2097,0.2102,0.2103,0.2106,0.2107,0.2115,0.2127,0.2115,0.2116,0.2116,0.2145,0.2145,0.2147,0.2159,0.2163,0.2164,0.2164,0.2165,0.227,0.2272,0,0,0,0,0,0,0.2093,0.2095,0.2097,0.2097,0.21,0.2105,0.2107,0.2107,0.2126,0.2129,0.2115,0.2116,0.2143,0.2146,0.2149,0.2229,0.2164,0.2165,0.2165,0.2268,0.227,0.2273,0,0,0,0,0,0,0.2093,0.2093,0.2097,0.2096,0.2096,0.2105,0.2105,0.2107,0.2127,0.2126,0.213,0.2136,0.2144,0.2147,0.2183,0.2227,0.2165,0.2166,0.2265,0.2269,0.2272,0.2335,0,0,0,0,0,0,0.2093,0.2093,0.2096,0.2096,0.2096,0.2117,0.2105,0.2107,0.2125,0.2127,0.2145,0.2147,0.2145,0.2181,0.2184,0.2228,0.2167,0.2262,0.2267,0.2271,0.233,0.234,0.2348,0,0,0,0,0,0.2093,0.2083,0.2096,0.2097,0.2099,0.2118,0.2119,0.2126,0.2126,0.2145,0.2158,0.2148,0.221,0.2183,0.2186,0.2231,0.226,0.2265,0.227,0.2326,0.2338,0.2348,0,0,0,0,0,0,0.2081,0.2084,0.2099,0.2092,0.2119,0.2121,0.2128,0.2138,0.2161,0.2163,0.2165,0.2169,0.2219,0.2217,0.2188,0.2277,0.2238,0.2244,0.228,0.2291,0.23,0.232,0.2168,0,0,0,0,0,0.2082,0.2083,0.2099,0.2103,0.2112,0.2128,0.2136,0.2148,0.2163,0.2173,0.2182,0.2203,0.2238,0.2257,0.2275,0.2316,0.2345,0.2352,0.2361,0.2368,0.2388,0.2461,0.2478,0.2289,0.2289,0.2289,0,0,0.2076,0.2083,0.2082,0.2102,0.2118,0.2141,0.2135,0.2156,0.2177,0.2173,0.2202,0.2229,0.2255,0.2306,0.2329,0.2312,0.2443,0.2375,0.2381,0.2397,0.2468,0.2486,0.2503,0.2292,0.2292,0.2291,0,0,0.206,0.2079,0.2072,0.2099,0.2129,0.2154,0.2168,0.2186,0.2198,0.2248,0.2246,0.2307,0.2348,0.2376,0.24,0.2472,0.2485,0.2479,0.2545,0.2616,0.2632,0.2646,0.2726,0.2747,0.2488,0.2488,0.2488,0,0.2063,0.2068,0.2078,0.2089,0.2121,0.2166,0.2191,0.2207,0.2236,0.2257,0.2275,0.2379,0.2393,0.2469,0.2502,0.2495,0.2537,0.2497,0.2628,0.2643,0.2656,0.2735,0.2757,0.2492,0.2491,0.2491,0.2491,0,0.2048,0.2065,0.2071,0.2113,0.2141,0.2184,0.2214,0.2243,0.2291,0.2325,0.2417,0.2465,0.2543,0.2556,0.2559,0.2661,0.2661,0.2625,0.2597,0.2679,0.2757,0.2779,0.2497,0.2496,0.2495,0.2494,0,0,0.205,0.2062,0.2074,0.21,0.2172,0.2197,0.2237,0.2304,0.236,0.242,0.2509,0.2591,0.2645,0.2677,0.2693,0.2755,0.2894,0.2742,0.2744,0.2818,0.307,0.289,0.2897,0.2879,0.2883,0.2886,0.3091,0,0.2066,0.2097,0.2095,0.2154,0.2192,0.2236,0.2295,0.235,0.2424,0.2513,0.2585,0.2687,0.2681,0.2754,0.2819,0.2869,0.2954,0.2843,0.2983,0.2988,0.2813,0.2916,0.2679,0.2825,0.3113,0.3117,0.3119,0,0.2071,0.2105,0.217,0.2217,0.2237,0.2291,0.2415,0.2459,0.257,0.2625,0.2733,0.2791,0.2911,0.2897,0.3063,0.2994,0.3056,0.3091,0.3099,0.2922,0.2847,0.2787,0.2854,0.3156,0.3153,0.3151,0.3148,0,0.2121,0.2146,0.2221,0.2248,0.2325,0.2366,0.2419,0.2526,0.2575,0.2713,0.2782,0.2925,0.3024,0.3117,0.3175,0.3152,0.3333,0.3308,0.3214,0.3203,0.3024,0.2988,0.3448,0.3448,0.3447,0.3447,0.3446,0,0.2182,0.2212,0.226,0.2316,0.2398,0.2436,0.2551,0.2594,0.2716,0.2794,0.2866,0.2959,0.3085,0.3175,0.3232,0.3276,0.3391,0.3257,0.3247,0.3038,0.3002,0.3292,0.3271,0.3454,0.3453,0.3451,0.345,0,0.2216,0.2271,0.2314,0.2399,0.2431,0.2493,0.2578,0.2649,0.2761,0.2863,0.2909,0.3033,0.3148,0.3217,0.3376,0.3335,0.3396,0.3379,0.3118,0.307,0.3227,0.3208,0.3356,0.3351,0.3347,0.3344,0.3341,0,0.2221,0.2278,0.2351,0.2394,0.2437,0.2528,0.2593,0.2681,0.2729,0.2892,0.2924,0.3072,0.3117,0.3238,0.3231,0.3284,0.3354,0.3054,0.295,0.3244,0.3221,0.3207,0.3193,0.2779,0.2772,0.2766,0.2761,0,0.2226,0.2272,0.2337,0.2399,0.2467,0.2512,0.2589,0.2619,0.2733,0.2796,0.2881,0.294,0.3043,0.2962,0.2976,0.2974,0.3014,0.2932,0.3352,0.2785,0.2701,0.2676,0.2683,0.2709,0.2714,0.2718,0.2721,0.2723,0.2219,0.2252,0.2337,0.239,0.2441,0.2468,0.246,0.2514,0.2562,0.2587,0.2729,0.2707,0.2741,0.2639,0.2574,0.2535,0.2757,0.2633,0.2653,0.2678,0.2521,0.2428,0.236,0.2363,0.2366,0.2368,0.237,0,0.2192,0.2262,0.2299,0.2361,0.2327,0.2414,0.2427,0.2363,0.2336,0.2395,0.2412,0.2206,0.215,0.2204,0.2077,0.2056,0.2063,0.1963,0.1966,0.2019,0.2066,0.1877,0.1547,0.1544,0.1541,0.1539,0,0,0.2214,0.2235,0.2253,0.2217,0.2263,0.2201,0.2179,0.2086,0.204,0.1951,0.1923,0.2034,0.2124,0.1794,0.1756,0.1634,0.181,0.1567,0.2235,0.2291,0.2335,0.2465,0.2235,0,0,0,0,0]},{"header":{"parameterUnit":"m.s-1","parameterCategory":2,"la1":30.2991,"la2":30.254,"lo1":-89.0895,"lo2":-89.0444,"dy":0.0017,"dx":0.0017,"nx":28,"ny":28,"refTime":"2023-10-17T03:00:00:Z","depth":"2","parameterNumber":3,"parameterNumberName":"V-component_of_CURRENTS"},"data":[0,0,0,0,0,0,0,0,0,0,0,0,0,0,0,0,0,0,0,0,0,0,0,0,0,0,0,0,0,0,0,0,0,0,0,0,0,0,0,0,0,0,0,0,0,0,0,0,0,0,0,0,0,0,0,0,0,0,0.0073,0.0073,0,0.0039,0.0038,0.0038,0.001,0.001,0.0009,0.0009,-0.0031,-0.0032,-0.0033,0,0,0,0,0,0,0,0,0,0,0,0,0,0.01,0.01,0.0073,0.0073,0.0072,0.0039,0.0038,0.0038,0.001,0.001,0.0009,0.0009,-0.003,-0.0032,-0.0033,0,0,0,0,0,0,0,0,0,0,0,0,0,0.0078,0.01,0.0073,0.0055,0.0053,0.0039,0.0038,0.0038,0.001,0.001,0.0009,0.0009,-0.003,-0.0031,-0.0033,-0.0035,0,0,-0.0037,-0.0037,0,0,0,0,0,0,0,0,0.008,0.0077,0.0058,0.0056,0.0054,0.0029,0.0033,0.0013,0.001,0.0025,0.0009,0.0009,-0.001,-0.0013,-0.0021,-0.0037,-0.0039,-0.0037,-0.0038,-0.0038,-0.0039,0,0,0,0,0,0,0,0.0081,0.0078,0.0058,0.0058,0.0055,0.0044,0.0041,0.0029,0.0009,0.0024,0.0022,0.002,-0.0012,-0.0019,-0.0022,-0.0039,-0.0037,-0.0038,-0.0039,-0.0039,-0.006,-0.006,0,0,0,0,0,0,0.0089,0.008,0.0059,0.0057,0.0068,0.0044,0.004,0.0037,0.0009,0.0005,0.002,0.0019,-0.0017,-0.002,-0.0023,-0.0013,-0.0038,-0.004,-0.004,-0.0061,-0.006,-0.006,0,0,0,0,0,0,0.0089,0.0087,0.0061,0.0069,0.0065,0.0044,0.004,0.0036,0.0029,0.0006,0.0002,0.0018,-0.0017,-0.0021,-0.0031,-0.0015,-0.004,-0.0041,-0.0061,-0.0061,-0.006,-0.0002,0,0,0,0,0,0,0.009,0.0087,0.0084,0.0069,0.0065,0.0062,0.0041,0.0036,0.0029,0.0027,0.0003,-0.0002,-0.0018,-0.0029,-0.0032,-0.0018,-0.0042,-0.0061,-0.0061,-0.006,-0.0004,0.0,0.0004,0,0,0,0,0,0.0091,0.0101,0.0084,0.0082,0.0062,0.0063,0.006,0.0043,0.0029,0.0034,0.0012,-0.0001,-0.0029,-0.003,-0.0034,-0.0019,-0.0061,-0.0061,-0.006,-0.0006,-0.0001,0.0004,0,0,0,0,0,0,0.0109,0.0099,0.008,0.0084,0.0074,0.0059,0.0062,0.0046,0.0032,0.0028,0.0002,-0.0003,-0.0007,-0.0023,-0.0024,-0.0026,-0.0047,-0.0047,-0.0005,0.0,0.0005,0.004,-0.0043,0,0,0,0,0,0.0111,0.0117,0.0099,0.0102,0.0098,0.0077,0.0073,0.0062,0.0049,0.0042,0.0024,0.0005,-0.0008,-0.0012,-0.0028,-0.0026,-0.0031,-0.002,-0.0016,-0.0012,0.0013,0.0006,0.0012,-0.0058,-0.0058,-0.0058,0,0,0.0118,0.0113,0.0115,0.0106,0.0095,0.011,0.0074,0.0076,0.0094,0.0041,0.0054,0.0017,-0.0007,-0.0006,-0.0009,-0.0016,0.0004,-0.0012,-0.0008,0.0016,0.0007,0.0014,0.002,-0.0058,-0.0058,-0.0058,0,0,0.0155,0.0131,0.0154,0.0153,0.0144,0.0133,0.0136,0.012,0.0118,0.012,0.0084,0.0058,0.0044,0.0027,0.0018,0.0036,0.0022,0.0027,0.0085,0.0077,0.0083,0.0088,0.0092,0.0097,0.0034,0.0034,0.0034,0,0.016,0.0189,0.0161,0.0186,0.0197,0.015,0.0183,0.0175,0.0159,0.0167,0.0136,0.0106,0.0066,0.0078,0.0074,0.0049,0.0047,0.0068,0.0084,0.009,0.0094,0.0096,0.0101,0.0037,0.0037,0.0037,0.0036,0,0.0221,0.024,0.0256,0.0273,0.0277,0.0296,0.0284,0.0287,0.0268,0.0256,0.0255,0.0195,0.0185,0.0154,0.0118,0.0132,0.0121,0.0087,0.0077,0.0105,0.0105,0.0109,0.0041,0.004,0.0039,0.0039,0,0,0.024,0.029,0.0295,0.0331,0.0327,0.0347,0.0372,0.039,0.0427,0.038,0.0423,0.0354,0.0312,0.0298,0.024,0.0218,0.0223,0.0171,0.0169,0.0186,0.0222,0.0146,0.0143,0.0194,0.0195,0.0195,0.0209,0,0.0295,0.038,0.0381,0.0456,0.0498,0.0476,0.0515,0.0521,0.0512,0.0537,0.0468,0.0476,0.0373,0.0369,0.0327,0.0254,0.0238,0.0224,0.0184,0.0184,0.012,0.0146,0.0165,0.0172,0.0214,0.0214,0.0215,0,0.0352,0.0409,0.05,0.0577,0.0592,0.0627,0.0685,0.0715,0.0721,0.0718,0.0696,0.0643,0.0602,0.051,0.0417,0.0416,0.0333,0.0265,0.0264,0.0181,0.0115,0.0149,0.0179,0.0222,0.0221,0.0221,0.022,0,0.0406,0.049,0.0575,0.0598,0.0669,0.0713,0.0747,0.0772,0.0833,0.0841,0.0877,0.0804,0.0792,0.0677,0.05,0.0478,0.0394,0.0349,0.0211,0.0206,0.0209,0.0201,0.0303,0.0303,0.0303,0.0303,0.0303,0,0.0471,0.0545,0.0615,0.0668,0.0783,0.0794,0.0905,0.093,0.099,0.1067,0.098,0.1017,0.0833,0.0743,0.0575,0.0401,0.0454,0.024,0.0207,0.0226,0.022,0.0249,0.0243,0.0303,0.0303,0.0303,0.0303,0,0.0531,0.0575,0.0682,0.0775,0.0818,0.0899,0.1027,0.1111,0.1143,0.1245,0.1261,0.1207,0.1081,0.0874,0.0688,0.0513,0.0343,0.0266,0.0298,0.0266,0.0153,0.0149,0.0155,0.0153,0.0151,0.0149,0.0147,0,0.0599,0.065,0.0762,0.0843,0.0897,0.1018,0.1116,0.119,0.1288,0.1353,0.1421,0.1336,0.1259,0.0952,0.0645,0.0364,0.0325,0.0196,0.0141,0.0172,0.0139,0.0139,0.0138,0.018,0.0179,0.0178,0.0177,0,0.0704,0.071,0.0778,0.0947,0.1067,0.1198,0.1339,0.1448,0.1527,0.1585,0.1629,0.1566,0.1273,0.0971,0.0576,0.0383,0.0235,0.0166,0.0219,0.019,0.0189,0.0158,0.0159,0.0169,0.017,0.017,0.0171,0.0171,0.0765,0.0819,0.0895,0.1049,0.1193,0.1363,0.1469,0.159,0.1722,0.1772,0.1741,0.1601,0.1311,0.0765,0.0474,0.0166,0.0178,0.006,0.0067,0.0073,0.0049,0.0042,-0.0008,-0.0009,-0.0009,-0.0009,-0.0009,0,0.083,0.0882,0.1019,0.1184,0.1343,0.1401,0.1608,0.1667,0.1777,0.1782,0.1745,0.1406,0.1104,0.0777,0.0317,0.0046,0.0049,-0.0037,0.0038,0.0047,0.0055,0.0032,-0.0031,-0.0032,-0.0032,-0.0033,0,0,0.0859,0.0972,0.1027,0.128,0.1402,0.1581,0.1687,0.172,0.1747,0.1686,0.1583,0.1472,0.1124,0.0786,0.0453,0.021,0.0184,0.0156,0.0198,0.0335,0.0346,0.0131,0.0107,0,0,0,0,0]}],[{"header":{"parameterUnit":"m.s-1","parameterCategory":2,"la1":30.2991,"la2":30.254,"lo1":-89.0895,"lo2":-89.0444,"dy":0.0017,"dx":0.0017,"nx":28,"ny":28,"refTime":"2023-10-17T03:00:00:Z","depth":"4","parameterNumber":2,"parameterNumberName":"U-component_of_CURRENTS"},"data":[0,0,0,0,0,0,0,0,0,0,0,0,0,0,0,0,0,0,0,0,0,0,0,0,0,0,0,0,0,0,0,0,0,0,0,0,0,0,0,0,0,0,0,0,0,0,0,0,0,0,0,0,0,0,0,0,0,0,0.111,0.1111,0,0.1172,0.1173,0.1173,0.1242,0.1243,0.1244,0.1245,0.1303,0.1304,0.1305,0,0,0,0,0,0,0,0,0,0,0,0,0,0.1049,0.105,0.111,0.1111,0.1112,0.1172,0.1173,0.1173,0.1242,0.1243,0.1245,0.1246,0.1303,0.1304,0.1305,0,0,0,0,0,0,0,0,0,0,0,0,0,0.109,0.105,0.111,0.1153,0.1158,0.1172,0.1173,0.1174,0.1242,0.1243,0.1245,0.1246,0.1303,0.1304,0.1305,0.1279,0,0,0.1308,0.1308,0,0,0,0,0,0,0,0,0.1087,0.1092,0.1146,0.115,0.1155,0.1201,0.1173,0.1209,0.1242,0.121,0.1245,0.1247,0.1268,0.1272,0.128,0.1282,0.1285,0.1308,0.1308,0.1309,0.1309,0,0,0,0,0,0,0,0.1084,0.109,0.1134,0.1147,0.1152,0.1169,0.1176,0.118,0.1229,0.1213,0.1218,0.1224,0.1271,0.1279,0.1282,0.1286,0.1308,0.1308,0.1309,0.1309,0.1385,0.1386,0,0,0,0,0,0,0.1076,0.1087,0.1132,0.1136,0.1125,0.1169,0.1177,0.1185,0.1229,0.1238,0.1223,0.1227,0.1276,0.1281,0.1284,0.1348,0.1308,0.1309,0.131,0.1383,0.1385,0.1387,0,0,0,0,0,0,0.1074,0.1079,0.113,0.1113,0.1121,0.1168,0.1176,0.1185,0.1227,0.1237,0.1246,0.126,0.1278,0.1283,0.1318,0.1347,0.131,0.1311,0.1382,0.1384,0.1386,0.1417,0,0,0,0,0,0,0.1072,0.1078,0.1091,0.1112,0.1121,0.1158,0.1175,0.1185,0.1227,0.1234,0.1271,0.1276,0.1279,0.1317,0.1319,0.1348,0.1311,0.138,0.1383,0.1385,0.1414,0.1419,0.1425,0,0,0,0,0,0.107,0.1069,0.1091,0.1097,0.1134,0.1158,0.1165,0.1203,0.1227,0.1247,0.1277,0.1277,0.1337,0.1318,0.1321,0.135,0.1379,0.1382,0.1385,0.1411,0.1418,0.1424,0,0,0,0,0,0,0.1051,0.1077,0.1101,0.1111,0.1146,0.1171,0.1191,0.1217,0.1256,0.1272,0.1286,0.1293,0.134,0.1339,0.1319,0.1383,0.1361,0.1365,0.138,0.1387,0.1392,0.139,0.1312,0,0,0,0,0,0.1052,0.1059,0.1095,0.1106,0.1128,0.1167,0.1187,0.1215,0.1245,0.1266,0.1286,0.1316,0.1348,0.1364,0.1385,0.1407,0.1417,0.1433,0.1438,0.1442,0.1444,0.1489,0.1498,0.1398,0.1398,0.1398,0,0,0.1048,0.1062,0.1069,0.1104,0.1136,0.116,0.1184,0.1221,0.1246,0.1262,0.1304,0.1335,0.1361,0.1398,0.1419,0.1404,0.1476,0.1447,0.145,0.1449,0.1493,0.1503,0.1512,0.14,0.14,0.1399,0,0,0.1031,0.1063,0.1067,0.1096,0.1144,0.1168,0.1186,0.1229,0.1262,0.1302,0.1329,0.1377,0.1411,0.1437,0.1456,0.1501,0.1508,0.1517,0.1537,0.1581,0.1589,0.1596,0.1618,0.1627,0.1515,0.1515,0.1515,0,0.1036,0.1042,0.1074,0.1091,0.1117,0.1175,0.1197,0.1232,0.1278,0.1312,0.1323,0.1413,0.143,0.1489,0.1509,0.1513,0.1535,0.1507,0.1587,0.1595,0.1602,0.1622,0.1631,0.1517,0.1517,0.1516,0.1516,0,0.102,0.1042,0.1051,0.1091,0.112,0.1152,0.1203,0.1244,0.1294,0.1334,0.1416,0.1448,0.151,0.1522,0.1529,0.1595,0.1593,0.1592,0.1566,0.1613,0.1632,0.1641,0.152,0.1519,0.1518,0.1518,0,0,0.1003,0.1035,0.1044,0.1066,0.1129,0.1151,0.1202,0.127,0.1329,0.1382,0.1456,0.1511,0.1559,0.1583,0.1607,0.1633,0.1696,0.1635,0.1637,0.1649,0.1789,0.1672,0.1671,0.1716,0.1718,0.172,0.178,0,0.0998,0.1009,0.1035,0.107,0.109,0.1159,0.1204,0.1274,0.1349,0.1432,0.1497,0.1583,0.1575,0.163,0.1657,0.17,0.1724,0.1679,0.1748,0.1749,0.1634,0.1679,0.1726,0.1787,0.1789,0.179,0.1792,0,0.0978,0.0991,0.1011,0.1069,0.1091,0.1126,0.1231,0.1283,0.141,0.1477,0.1574,0.1644,0.1722,0.1706,0.1787,0.1766,0.1782,0.1792,0.1795,0.168,0.1649,0.1732,0.1809,0.1807,0.1806,0.1805,0.1804,0,0.0937,0.0978,0.0993,0.1013,0.1086,0.1128,0.1187,0.1304,0.1371,0.1527,0.1611,0.171,0.179,0.1824,0.1864,0.1845,0.1934,0.1911,0.1812,0.1804,0.1877,0.1869,0.1958,0.1958,0.1958,0.1958,0.1957,0,0.091,0.0924,0.0979,0.0995,0.104,0.1108,0.1199,0.1279,0.1413,0.1509,0.1644,0.1732,0.1829,0.1899,0.1899,0.1886,0.1971,0.182,0.1816,0.1888,0.188,0.1884,0.1874,0.196,0.1959,0.1959,0.1959,0,0.0845,0.0883,0.0908,0.099,0.1019,0.1056,0.1188,0.126,0.1403,0.1535,0.1597,0.1772,0.1868,0.1932,0.1998,0.1931,0.1928,0.19,0.1976,0.1975,0.1757,0.1749,0.179,0.1786,0.1783,0.1781,0.1778,0,0.0793,0.0802,0.089,0.0918,0.0958,0.1033,0.1095,0.1236,0.1316,0.1542,0.1595,0.1762,0.1862,0.1866,0.1924,0.1922,0.1892,0.1872,0.1798,0.175,0.1742,0.1739,0.1735,0.1774,0.1773,0.1772,0.1771,0,0.071,0.0762,0.0793,0.0856,0.0918,0.0969,0.107,0.1117,0.1298,0.1446,0.1574,0.1649,0.1754,0.18,0.1822,0.1809,0.1873,0.184,0.1845,0.1775,0.1731,0.1726,0.1725,0.1761,0.1762,0.1763,0.1764,0,0.0663,0.0662,0.0733,0.0778,0.0843,0.0879,0.0949,0.1052,0.1144,0.1394,0.1428,0.1605,0.1745,0.1743,0.1756,0.1745,0.1704,0.1624,0.164,0.1652,0.1576,0.1498,0.1456,0,0,0,0,0,0.062,0.0622,0.0649,0.0698,0.0758,0.0798,0.0917,0.1,0.1183,0.1236,0.1328,0.1426,0.1499,0.1578,0.1535,0.1661,0.1684,0.1599,0.1594,0.1703,0.1715,0.1636,0,0,0,0,0,0,0.0601,0.0624,0.0618,0.0612,0.0633,0.0689,0.076,0.0884,0.0925,0.1122,0.1173,0.1316,0.1403,0.1505,0.1501,0.1519,0.1479,0.1695,0.169,0.1696,0.1707,0.1717,0.1639,0,0,0,0,0]},{"header":{"parameterUnit":"m.s-1","parameterCategory":2,"la1":30.2991,"la2":30.254,"lo1":-89.0895,"lo2":-89.0444,"dy":0.0017,"dx":0.0017,"nx":28,"ny":28,"refTime":"2023-10-17T03:00:00:Z","depth":"4","parameterNumber":3,"parameterNumberName":"V-component_of_CURRENTS"},"data":[0,0,0,0,0,0,0,0,0,0,0,0,0,0,0,0,0,0,0,0,0,0,0,0,0,0,0,0,0,0,0,0,0,0,0,0,0,0,0,0,0,0,0,0,0,0,0,0,0,0,0,0,0,0,0,0,0,0,0.0103,0.0103,0,0.008,0.0079,0.0079,0.0071,0.0071,0.0071,0.0071,0.0049,0.0049,0.0048,0,0,0,0,0,0,0,0,0,0,0,0,0,0.0122,0.0122,0.0103,0.0103,0.0103,0.008,0.0079,0.0079,0.0071,0.0071,0.0071,0.0071,0.0049,0.0049,0.0048,0,0,0,0,0,0,0,0,0,0,0,0,0,0.0108,0.0122,0.0103,0.0096,0.0095,0.008,0.0079,0.0079,0.0071,0.0071,0.0071,0.0071,0.005,0.0049,0.0048,0.004,0,0,0.0045,0.0044,0,0,0,0,0,0,0,0,0.0109,0.0107,0.0097,0.0096,0.0095,0.0078,0.0078,0.0066,0.0071,0.0081,0.0071,0.0071,0.0059,0.0057,0.0053,0.0039,0.0038,0.0045,0.0044,0.0044,0.0043,0,0,0,0,0,0,0,0.011,0.0108,0.0094,0.0097,0.0096,0.0086,0.0085,0.0075,0.007,0.008,0.0079,0.0076,0.0058,0.0054,0.0052,0.0038,0.0045,0.0044,0.0043,0.0043,0.002,0.002,0,0,0,0,0,0,0.0113,0.0109,0.0095,0.0094,0.0102,0.0086,0.0084,0.0084,0.007,0.0068,0.0076,0.0075,0.0055,0.0053,0.0051,0.0061,0.0044,0.0043,0.0042,0.002,0.002,0.002,0,0,0,0,0,0,0.0113,0.0112,0.0096,0.01,0.0098,0.0086,0.0085,0.0083,0.0081,0.0067,0.0065,0.0076,0.0055,0.0053,0.0046,0.006,0.0042,0.0042,0.002,0.002,0.002,0.0068,0,0,0,0,0,0,0.0114,0.0112,0.0111,0.0101,0.0098,0.0097,0.0085,0.0083,0.0079,0.0078,0.0066,0.0064,0.0055,0.0048,0.0045,0.0058,0.0041,0.002,0.002,0.002,0.0067,0.007,0.0072,0,0,0,0,0,0.0115,0.0123,0.0111,0.011,0.0097,0.0097,0.0095,0.0087,0.0079,0.0084,0.0071,0.0064,0.0046,0.0047,0.0044,0.0057,0.002,0.002,0.002,0.0065,0.0069,0.0072,0,0,0,0,0,0,0.0128,0.0122,0.011,0.0114,0.0107,0.0096,0.0098,0.0089,0.0082,0.0081,0.0064,0.0061,0.006,0.0047,0.0049,0.0048,0.0032,0.0031,0.0067,0.007,0.0073,0.0101,0.004,0,0,0,0,0,0.013,0.0138,0.0122,0.0127,0.0123,0.0108,0.0105,0.0101,0.0092,0.0089,0.0078,0.0065,0.0056,0.0055,0.0043,0.0045,0.0016,0.0049,0.0052,0.0055,0.0074,0.0026,0.0027,0.002,0.002,0.002,0,0,0.0134,0.0134,0.0136,0.0131,0.0123,0.0132,0.0107,0.011,0.0125,0.0088,0.01,0.0074,0.0056,0.0058,0.0057,0.0052,0.0039,0.0055,0.0058,0.0076,0.0026,0.0027,0.0028,0.002,0.002,0.002,0,0,0.0162,0.0148,0.0166,0.0164,0.0159,0.0152,0.0153,0.0142,0.0143,0.0148,0.0121,0.0104,0.0096,0.0084,0.0078,0.0088,0.0052,0.0079,0.0124,0.0077,0.0078,0.0078,0.0032,0.0028,0.0086,0.0086,0.0086,0,0.0167,0.0188,0.017,0.0189,0.0195,0.0164,0.0186,0.0183,0.0173,0.0176,0.0163,0.0134,0.0114,0.0113,0.0118,0.0098,0.0062,0.0115,0.0082,0.0081,0.0081,0.0034,0.0029,0.0088,0.0088,0.0087,0.0087,0,0.0209,0.0224,0.0236,0.0251,0.0253,0.0267,0.0258,0.0262,0.0254,0.0245,0.0239,0.0203,0.0189,0.0172,0.0155,0.014,0.0111,0.0087,0.0076,0.0084,0.0034,0.0028,0.0091,0.009,0.009,0.0089,0,0,0.0229,0.026,0.0265,0.0287,0.0289,0.03,0.0322,0.0332,0.0347,0.0325,0.0339,0.031,0.0276,0.0266,0.0224,0.0187,0.0142,0.0143,0.0139,0.0105,0.0033,0.0031,0.0023,0.0105,0.0105,0.0104,-0.0003,0,0.0268,0.0324,0.0327,0.0376,0.04,0.0388,0.0414,0.0417,0.0408,0.0408,0.0366,0.0359,0.0316,0.0304,0.026,0.0166,0.0129,0.0174,0.0026,0.0022,0.0024,0.0018,0.0102,-0.0008,-0.001,-0.0011,-0.0012,0,0.0308,0.0345,0.0407,0.045,0.0458,0.0485,0.0514,0.0534,0.0522,0.0513,0.0488,0.0443,0.0393,0.0352,0.0215,0.0241,0.0155,0.0081,0.0074,0.0058,0.0009,-0.0017,-0.0024,-0.0023,-0.0022,-0.0021,-0.0021,0,0.0342,0.0398,0.0456,0.047,0.0513,0.0545,0.0565,0.0569,0.0591,0.0576,0.0576,0.0502,0.0465,0.035,0.0203,0.0204,0.0039,0.0017,-0.0063,-0.0065,-0.0052,-0.0051,-0.0067,-0.0067,-0.0066,-0.0066,-0.0066,0,0.0385,0.0431,0.0482,0.0515,0.0586,0.0597,0.0659,0.0663,0.067,0.0692,0.0634,0.0618,0.0461,0.0349,0.0216,0.0054,0.0045,-0.0049,-0.0089,-0.0032,-0.0027,-0.0058,-0.0055,-0.007,-0.0069,-0.0068,-0.0068,0,0.0416,0.0452,0.0518,0.0579,0.0609,0.0659,0.0724,0.076,0.0759,0.0782,0.0781,0.0691,0.0545,0.0378,0.0174,0.0076,-0.0083,-0.0135,-0.0061,-0.0097,-0.0158,-0.0152,-0.0228,-0.0229,-0.023,-0.023,-0.0231,0,0.0441,0.048,0.0562,0.061,0.0648,0.0726,0.0783,0.0809,0.0839,0.0822,0.0829,0.0711,0.0631,0.0344,0.0163,-0.0088,-0.0118,-0.0193,-0.0165,-0.0141,-0.0173,-0.0166,-0.0159,-0.0232,-0.0232,-0.0232,-0.0233,0,0.0476,0.0501,0.0551,0.0648,0.0725,0.0808,0.088,0.0903,0.0928,0.093,0.0868,0.0733,0.0568,0.0348,0.0152,-0.0027,-0.0142,-0.0202,-0.0201,-0.0175,-0.0147,-0.0177,-0.0169,-0.0235,-0.0235,-0.0235,-0.0234,0,0.049,0.0523,0.0583,0.0671,0.0767,0.0848,0.0893,0.0927,0.0955,0.0932,0.0905,0.0737,0.0638,0.0378,0.0193,0.0019,-0.0016,-0.0059,-0.0066,-0.0065,0.0016,0.0077,0.0029,0,0,0,0,0,0.0499,0.0533,0.0602,0.0701,0.0795,0.0854,0.0937,0.097,0.0995,0.0963,0.0934,0.0784,0.0522,0.0406,0.0232,0.0169,-0.0057,-0.004,-0.0111,-0.025,-0.0247,-0.0179,0,0,0,0,0,0,0.0499,0.0561,0.0589,0.0703,0.0777,0.0889,0.0941,0.0967,0.0945,0.0939,0.0799,0.075,0.0488,0.0618,0.0231,0.0178,0.0112,-0.0158,-0.0162,-0.0251,-0.0249,-0.0246,-0.0176,0,0,0,0,0]}]]